Hauptseite
METAR-TAF:

METAR-TAF

Flughäfen :

Nancy, Frankreich

Breite: 48-41N, Länge: 006-13E, Höhe: 225 m

Beobachtung

Neuester Wetterbericht von vor 38 Minuten, um 18:00 UTC
Wind 3 kt aus Süd/Südwest, variierte zwischen Süd/Südost und West/Südwest
Temperatur 15°C
Luftfeuchtigkeit 82%
Luftdruck 1018 hPa
Sichtweite 10 km oder mehr
Regen

METAR: LFSN 121800Z AUTO 20003KT 160V250 9999 RA OVC040/// ///CB 15/12 Q1018

Zeit: 19:38 (18:38 UTC)


TAF: fehlend

Wetterbeobachtungen und Prognosen von mehr als 4000 Flughäfen (METAR und TAF Bericht).

Die verfügbaren Stationen werden durch gelbe und rote Markierungen auf der Karte dargestellt.

Führen Sie die Maus auf sie, um den Namen der Station zu sehen.

Darauf klicken, um die Beobachtung von Wetterbeobachtungen und Prognosen zu sehen.

Um die Karte zu ändern : klicken Sie auf den grünen Tasten mit einem schwarzen Kreuz Zum Vergrößern, auf den grünen Button mit einem Gedankenstrich zu verkleinern, oder auf die grünen Pfeile für benachbarte Karten.


METAR-TAF: